Location: Newark
(17.9939°S, 31.0481°E)
Time: 09:06:57
(UTC+00:00)

Courier 1B - Pass Details

Date: 13 November 2019
Orbit: 963 x 1209 km, 28.3° (Epoch: 11 December)

Event Time Altitude Azimuth Distance (km) Brightness Sun altitude
Rises 19:21:34 0° 259° (WSW) 4,092 11.4 -40.4°
Reaches altitude 10° 19:24:39 10° 251° (WSW) 3,143 10.7 -40.9°
Enters shadow 19:31:17 38° 195° (SSW) 1,750 9.0 -42.0°
